CSN6799 ZYTL-ZBTJ

Flight info

Callsign CSN6799
Flight time 0h 51m
Altitude 36100
Route ORA09D ORAVA W576 OVTUP W55 DUMAP DUMAP3H
Aircraft A320/M-SDE3FGHIRWY/LB1

Departure

Time 2026-05-05 23:46
Airport Dalian Zhoushuizi International Airport (ZYTL)

Arrival

Time 2026-05-06 00:38
Airport Tianjin Binhai International Airport (ZBTJ)
Time Latitude Longitude Altitude Speed Heading
2026-05-05 23:38 38.96411 121.51948 116 ft 0 kts 275°
2026-05-05 23:42 38.96412 121.51945 116 ft 2 kts 275°
2026-05-05 23:42 38.96423 121.51864 116 ft 15 kts 295°
2026-05-05 23:42 38.96514 121.51855 115 ft 14 kts 41°
2026-05-05 23:43 38.96562 121.51950 116 ft 12 kts 31°
2026-05-05 23:43 38.96604 121.51956 114 ft 0 kts
2026-05-05 23:44 38.96605 121.51956 114 ft 1 kts
2026-05-05 23:44 38.96640 121.51959 113 ft 5 kts
2026-05-05 23:44 38.96675 121.51973 114 ft 8 kts 28°
2026-05-05 23:44 38.96707 121.52058 114 ft 12 kts 92°
2026-05-05 23:45 38.96690 121.52177 116 ft 15 kts 102°
2026-05-05 23:45 38.96679 121.52274 116 ft 0 kts 95°
2026-05-05 23:45 38.96679 121.52277 116 ft 5 kts 95°
2026-05-05 23:46 38.96646 121.52690 116 ft 84 kts 96°
2026-05-05 23:46 38.96568 121.53715 114 ft 145 kts 96°
2026-05-05 23:46 38.96442 121.55121 661 ft 150 kts 99°
2026-05-05 23:46 38.96335 121.56450 1366 ft 151 kts 104°
2026-05-05 23:47 38.96235 121.57787 1862 ft 156 kts 108°
2026-05-05 23:47 38.96114 121.59272 2134 ft 179 kts 105°
2026-05-05 23:47 38.95968 121.61014 2424 ft 209 kts 104°
2026-05-05 23:47 38.95812 121.62954 2784 ft 232 kts 102°
2026-05-05 23:48 38.95640 121.65148 3194 ft 257 kts 101°
2026-05-05 23:48 38.95469 121.67452 4035 ft 263 kts 99°
2026-05-05 23:48 38.95318 121.69799 4989 ft 267 kts 94°
2026-05-05 23:48 38.95734 121.72148 5934 ft 275 kts 61°
2026-05-05 23:49 38.97055 121.73921 6879 ft 276 kts 28°
2026-05-05 23:49 38.98869 121.74613 7740 ft 276 kts
2026-05-05 23:49 39.00787 121.74696 8642 ft 276 kts 346°
2026-05-05 23:49 39.02534 121.73808 9567 ft 271 kts 318°
2026-05-05 23:50 39.03829 121.72047 10231 ft 276 kts 295°
2026-05-05 23:50 39.04412 121.69668 10573 ft 292 kts 273°
2026-05-05 23:50 39.04616 121.66952 10887 ft 316 kts 272°
2026-05-05 23:50 39.04819 121.64063 11356 ft 332 kts 273°
2026-05-05 23:51 39.05035 121.61041 12111 ft 338 kts 274°
2026-05-05 23:51 39.05066 121.58038 12920 ft 341 kts 261°
2026-05-05 23:51 39.04312 121.55120 13746 ft 346 kts 242°
2026-05-05 23:51 39.02795 121.52744 14461 ft 354 kts 221°
2026-05-05 23:52 39.00651 121.51083 15178 ft 360 kts 210°
2026-05-05 23:52 38.98386 121.49629 15907 ft 363 kts 210°
2026-05-05 23:52 38.96144 121.48201 16621 ft 366 kts 210°
2026-05-05 23:52 38.93856 121.46747 17340 ft 368 kts 210°
2026-05-05 23:53 38.91527 121.45266 18045 ft 372 kts 210°
2026-05-05 23:53 38.89197 121.43777 18655 ft 375 kts 210°
2026-05-05 23:53 38.86851 121.42273 19242 ft 378 kts 210°
2026-05-05 23:53 38.84485 121.40755 19726 ft 382 kts 211°
2026-05-05 23:54 38.82905 121.39740 19839 ft 383 kts 211°
2026-05-05 23:54 38.80530 121.38217 19947 ft 385 kts 211°
2026-05-05 23:54 38.77319 121.36167 20731 ft 389 kts 211°
2026-05-05 23:54 38.74891 121.34621 21300 ft 392 kts 211°
2026-05-05 23:55 38.73204 121.33545 21679 ft 394 kts 211°
2026-05-05 23:55 38.70760 121.31983 22201 ft 398 kts 211°
2026-05-05 23:55 38.68251 121.30379 22727 ft 401 kts 211°
2026-05-05 23:55 38.65731 121.28773 23241 ft 405 kts 211°
2026-05-05 23:56 38.63207 121.27167 23671 ft 409 kts 211°
2026-05-05 23:56 38.60713 121.25376 24058 ft 407 kts 220°
2026-05-05 23:56 38.58647 121.22960 24455 ft 403 kts 234°
2026-05-05 23:56 38.57125 121.19984 24824 ft 399 kts 248°
2026-05-05 23:57 38.56229 121.16660 25213 ft 397 kts 261°
2026-05-05 23:57 38.55989 121.13165 25602 ft 397 kts 273°
2026-05-05 23:57 38.56386 121.09648 25988 ft 398 kts 282°
2026-05-05 23:57 38.56966 121.06199 26407 ft 400 kts 282°
2026-05-05 23:58 38.57549 121.02706 26805 ft 401 kts 282°
2026-05-05 23:58 38.58127 120.99206 27190 ft 403 kts 282°
2026-05-05 23:58 38.58702 120.95709 27563 ft 405 kts 282°
2026-05-05 23:58 38.59282 120.92169 27936 ft 406 kts 282°
2026-05-05 23:59 38.59861 120.88635 28295 ft 408 kts 282°
2026-05-05 23:59 38.60442 120.85089 28640 ft 409 kts 282°
2026-05-05 23:59 38.61028 120.81519 28966 ft 411 kts 282°
2026-05-05 23:59 38.61613 120.77936 29284 ft 412 kts 282°
2026-05-06 00:00 38.62199 120.74338 29589 ft 413 kts 282°
2026-05-06 00:00 38.62786 120.70736 29877 ft 415 kts 282°
2026-05-06 00:00 38.63373 120.67146 30113 ft 416 kts 283°
2026-05-06 00:00 38.63964 120.63519 30404 ft 414 kts 283°
2026-05-06 00:01 38.64548 120.59908 30748 ft 412 kts 283°
2026-05-06 00:01 38.65123 120.56339 31082 ft 410 kts 283°
2026-05-06 00:01 38.65706 120.52768 31425 ft 408 kts 283°
2026-05-06 00:01 38.66299 120.49195 31783 ft 405 kts 283°
2026-05-06 00:02 38.66888 120.45678 32135 ft 403 kts 283°
2026-05-06 00:02 38.67467 120.42210 32477 ft 401 kts 283°
2026-05-06 00:02 38.68048 120.38698 32846 ft 399 kts 283°
2026-05-06 00:02 38.68612 120.35261 33188 ft 397 kts 283°
2026-05-06 00:03 38.69179 120.31782 33550 ft 395 kts 283°
2026-05-06 00:03 38.69669 120.28337 33895 ft 394 kts 278°
2026-05-06 00:03 38.69582 120.24811 34194 ft 400 kts 265°
2026-05-06 00:03 38.68780 120.21410 34473 ft 409 kts 252°
2026-05-06 00:04 38.67232 120.18256 34751 ft 423 kts 237°
2026-05-06 00:04 38.65011 120.15690 35001 ft 441 kts 223°
2026-05-06 00:04 38.62415 120.13551 35221 ft 444 kts 221°
2026-05-06 00:04 38.59802 120.11439 35438 ft 444 kts 221°
2026-05-06 00:05 38.55299 120.07813 35827 ft 444 kts 221°
2026-05-06 00:05 38.53198 120.06118 36001 ft 444 kts 222°
2026-05-06 00:05 38.50779 120.04166 36201 ft 444 kts 222°
2026-05-06 00:06 38.48608 120.02416 36382 ft 443 kts 222°
2026-05-06 00:06 38.46155 120.00436 36575 ft 443 kts 222°
2026-05-06 00:06 38.43627 119.98187 36768 ft 435 kts 229°
2026-05-06 00:06 38.41420 119.95555 36829 ft 424 kts 237°
2026-05-06 00:07 38.39452 119.92770 36832 ft 424 kts 237°
2026-05-06 00:07 38.35488 119.87184 36826 ft 424 kts 237°
2026-05-06 00:08 38.31522 119.81635 36828 ft 424 kts 237°
2026-05-06 00:08 38.27545 119.76102 36828 ft 424 kts 237°
2026-05-06 00:09 38.23564 119.70558 36831 ft 424 kts 237°
2026-05-06 00:09 38.19574 119.65001 36825 ft 425 kts 237°
2026-05-06 00:10 38.15719 119.59335 36826 ft 415 kts 246°
2026-05-06 00:10 38.14386 119.56108 36827 ft 402 kts 257°
2026-05-06 00:10 38.13643 119.52790 36825 ft 392 kts 267°
2026-05-06 00:11 38.13728 119.46013 36821 ft 379 kts 285°
2026-05-06 00:11 38.15509 119.39772 36821 ft 376 kts 294°
2026-05-06 00:12 38.17521 119.33605 36820 ft 376 kts 294°
2026-05-06 00:12 38.19518 119.27469 36821 ft 377 kts 294°
2026-05-06 00:13 38.21518 119.21312 36818 ft 377 kts 294°
2026-05-06 00:13 38.23502 119.15164 36817 ft 377 kts 293°
2026-05-06 00:14 38.25489 119.08980 36819 ft 376 kts 293°
2026-05-06 00:14 38.27465 119.02822 36814 ft 376 kts 293°
2026-05-06 00:15 38.29440 118.96671 36810 ft 376 kts 293°
2026-05-06 00:15 38.31423 118.90495 36806 ft 376 kts 293°
2026-05-06 00:16 38.33396 118.84336 36805 ft 376 kts 293°
2026-05-06 00:16 38.35370 118.78133 36801 ft 376 kts 293°
2026-05-06 00:17 38.37338 118.71965 36798 ft 375 kts 293°
2026-05-06 00:17 38.38313 118.68915 36630 ft 376 kts 293°
2026-05-06 00:17 38.39297 118.65831 36369 ft 375 kts 293°
2026-05-06 00:17 38.40281 118.62744 36114 ft 376 kts 292°
2026-05-06 00:18 38.41278 118.59611 35860 ft 377 kts 292°
2026-05-06 00:18 38.42265 118.56504 35611 ft 378 kts 292°
2026-05-06 00:18 38.43252 118.53399 35364 ft 380 kts 292°
2026-05-06 00:18 38.44237 118.50303 35123 ft 381 kts 292°
2026-05-06 00:19 38.45245 118.47134 34875 ft 382 kts 292°
2026-05-06 00:19 38.46245 118.43986 34643 ft 383 kts 292°
2026-05-06 00:19 38.47234 118.40870 34337 ft 384 kts 292°
2026-05-06 00:19 38.48237 118.37700 33375 ft 378 kts 291°
2026-05-06 00:20 38.49208 118.34619 32336 ft 372 kts 291°
2026-05-06 00:20 38.50167 118.31563 31347 ft 370 kts 291°
2026-05-06 00:20 38.51129 118.28499 30402 ft 375 kts 291°
2026-05-06 00:20 38.52110 118.25379 29372 ft 378 kts 291°
2026-05-06 00:21 38.53088 118.22268 28302 ft 380 kts 291°
2026-05-06 00:21 38.54070 118.19146 27449 ft 377 kts 291°
2026-05-06 00:21 38.55049 118.16029 26751 ft 378 kts 290°
2026-05-06 00:21 38.56023 118.12922 26028 ft 378 kts 290°
2026-05-06 00:22 38.56997 118.09804 25324 ft 377 kts 290°
2026-05-06 00:22 38.57966 118.06704 24626 ft 376 kts 290°
2026-05-06 00:22 38.58937 118.03594 23930 ft 376 kts 290°
2026-05-06 00:22 38.59934 118.00504 23234 ft 376 kts 291°
2026-05-06 00:23 38.60993 117.97448 22496 ft 376 kts 292°
2026-05-06 00:23 38.62080 117.94430 21870 ft 373 kts 293°
2026-05-06 00:23 38.63177 117.91418 21253 ft 370 kts 293°
2026-05-06 00:23 38.64256 117.88451 20668 ft 368 kts 293°
2026-05-06 00:24 38.65328 117.85486 20112 ft 365 kts 293°
2026-05-06 00:24 38.66398 117.82494 19558 ft 363 kts 293°
2026-05-06 00:24 38.67427 117.79582 19042 ft 360 kts 293°
2026-05-06 00:24 38.68439 117.76694 18523 ft 358 kts 293°
2026-05-06 00:25 38.69465 117.73771 17992 ft 356 kts 293°
2026-05-06 00:25 38.70476 117.70882 17437 ft 353 kts 293°
2026-05-06 00:25 38.71463 117.68058 16919 ft 350 kts 292°
2026-05-06 00:25 38.72463 117.65198 16398 ft 347 kts 292°
2026-05-06 00:26 38.73445 117.62393 15858 ft 345 kts 292°
2026-05-06 00:26 38.74101 117.60525 15502 ft 344 kts 292°
2026-05-06 00:26 38.75083 117.57726 14953 ft 344 kts 292°
2026-05-06 00:26 38.76057 117.54947 14400 ft 344 kts 292°
2026-05-06 00:27 38.76999 117.52254 13850 ft 345 kts 292°
2026-05-06 00:27 38.77953 117.49532 13263 ft 346 kts 292°
2026-05-06 00:27 38.78936 117.46720 12662 ft 345 kts 292°
2026-05-06 00:27 38.80116 117.44034 12061 ft 346 kts 303°
2026-05-06 00:28 38.81747 117.41745 11451 ft 349 kts 316°
2026-05-06 00:28 38.83748 117.39989 10821 ft 354 kts 329°
2026-05-06 00:28 38.85976 117.38639 10416 ft 348 kts 332°
2026-05-06 00:28 38.88142 117.37339 10295 ft 332 kts 331°
2026-05-06 00:29 38.90184 117.36089 10175 ft 319 kts 330°
2026-05-06 00:29 38.92148 117.34872 10060 ft 307 kts 330°
2026-05-06 00:29 38.94020 117.33702 9904 ft 298 kts 330°
2026-05-06 00:29 38.95836 117.32563 9787 ft 294 kts 330°
2026-05-06 00:30 38.97667 117.31412 9666 ft 293 kts 329°
2026-05-06 00:30 38.99520 117.30249 9338 ft 296 kts 330°
2026-05-06 00:30 39.01365 117.29081 8903 ft 295 kts 329°
2026-05-06 00:30 39.03217 117.27900 8357 ft 299 kts 329°
2026-05-06 00:31 39.05055 117.26728 7987 ft 291 kts 329°
2026-05-06 00:31 39.06858 117.25580 7288 ft 290 kts 329°
2026-05-06 00:31 39.08670 117.24424 6579 ft 289 kts 330°
2026-05-06 00:31 39.10474 117.23273 5901 ft 287 kts 330°
2026-05-06 00:32 39.12247 117.22142 5299 ft 282 kts 329°
2026-05-06 00:32 39.13980 117.21034 4746 ft 278 kts 329°
2026-05-06 00:32 39.15690 117.19939 4240 ft 271 kts 329°
2026-05-06 00:32 39.17329 117.18894 4168 ft 246 kts 329°
2026-05-06 00:33 39.18792 117.17966 4111 ft 225 kts 329°
2026-05-06 00:33 39.20196 117.17069 4041 ft 219 kts 328°
2026-05-06 00:33 39.21600 117.16465 3941 ft 215 kts 353°
2026-05-06 00:33 39.23043 117.16871 3844 ft 214 kts 27°
2026-05-06 00:34 39.24109 117.18250 3453 ft 225 kts 62°
2026-05-06 00:34 39.24801 117.20124 3049 ft 237 kts 65°
2026-05-06 00:34 39.25278 117.22199 2639 ft 243 kts 86°
2026-05-06 00:34 39.25157 117.24329 2483 ft 237 kts 108°
2026-05-06 00:35 39.24490 117.26261 2304 ft 233 kts 128°
2026-05-06 00:35 39.23413 117.27731 2094 ft 223 kts 148°
2026-05-06 00:35 39.22088 117.28688 1792 ft 214 kts 160°
2026-05-06 00:35 39.20722 117.29525 1518 ft 215 kts 159°
2026-05-06 00:36 39.19396 117.30339 1256 ft 214 kts 159°
2026-05-06 00:36 39.18072 117.31156 972 ft 201 kts 158°
2026-05-06 00:36 39.16890 117.31885 725 ft 174 kts 158°
2026-05-06 00:36 39.15870 117.32513 507 ft 151 kts 158°
2026-05-06 00:37 39.14961 117.33069 319 ft 139 kts 156°
2026-05-06 00:37 39.14124 117.33582 147 ft 135 kts 156°
2026-05-06 00:37 39.13278 117.34101 20 ft 126 kts 154°
2026-05-06 00:37 39.12607 117.34511 21 ft 85 kts 154°
2026-05-06 00:38 39.12191 117.34769 19 ft 45 kts 154°
2026-05-06 00:38 39.12027 117.34865 22 ft 7 kts 156°
2026-05-06 00:38 39.11960 117.34904 21 ft 19 kts 149°
2026-05-06 00:38 39.11848 117.35003 23 ft 20 kts 151°
2026-05-06 00:39 39.11748 117.35136 21 ft 22 kts 122°
2026-05-06 00:39 39.11695 117.35338 19 ft 25 kts 96°
2026-05-06 00:39 39.11685 117.35477 19 ft 7 kts 96°
2026-05-06 00:39 39.11680 117.35534 19 ft 6 kts 96°
2026-05-06 00:40 39.11676 117.35584 19 ft 5 kts 96°
2026-05-06 00:40 39.11672 117.35631 19 ft 5 kts 96°
2026-05-06 00:40 39.11668 117.35672 19 ft 4 kts 99°
2026-05-06 00:40 39.11657 117.35707 19 ft 4 kts 121°
2026-05-06 00:41 39.11640 117.35729 21 ft 3 kts 143°
2026-05-06 00:41 39.11626 117.35738 19 ft 0 kts 153°